星链-3611 (STARLINK-3611 )

导读 | 豆包AI

STARLINK-3611是美国SpaceX星链项目的低轨通信卫星,于2022年2月25日发射,星链V1.5版本,国际标识2022-017M。目前在轨运行已超四年,运行轨道高度约540公里,倾角53.2°,属于星链第11批卫星群。它搭载激光通信终端,可实现星间高速互联,为全球提供宽带互联网服务,尤其覆盖基础设施匮乏区域,支撑远程教育、远程医疗等应用,服务全球联网。

Basic Information
目录编号:
51779
目录名称:
STARLINK-3611
国际标识:
2022-017M
轨道中心:
EARTH
卫星名称:
星链-3611
卫星全名:
星链-3611 (STARLINK-3611 )
卫星状态:
在轨 (已飞行1478 天)
发射日期:
2022-02-25 UTC
国别 :
美国 (US)
星等 :
--
Orbit Information
数据来源 国际轨道数据 AOE轨道数据
星历时间 2026-03-14T07:08:28+0800
1天前
查看轨道信息
2026-03-12T22:00:00+0800
2天前
查看轨道信息
半长轴 6917.881km 6917.898km
偏心率 0.0001104 0.0001528
轨道倾角 53.217° 53.217°
近地点辐角 84.029° 80.135°
升交点赤经 319.982° 326.182°
平近点角 276.083° 335.190°
近地点 538.98km 538.703km
远地点 540.508km 540.819km
周期 95.438分钟 95.438分钟
每日圈数 15.088401 15.088344
Detailed Information
固有亮度:
5
最大亮度:
2.5
卫星平台:
Starlink v1.5
覆盖范围:
全球
运营商:
太空探索技术公司
运营商所在国:
美国
制造商(研发单位):
太空探索技术公司
制造商所在国:
美国
使用方式:
暂无
Satellite Introduction
星链(Starlink)计划是由太空探索技术公司(SpaceX)提出的一个巨型低轨卫星互联网星座项目,计划在2019年至2024年间在太空搭建由约1.2万颗卫星组成的“星链”网络,其中1584颗将部署在地球上空550千米处的近地轨道,并从2020年开始工作。该卫星仍在工作。
2D Orbit Map
3D Orbit Map
Orbit Altitude Analysis Chart
Orbit Inclination Analysis Chart
Orbit Comprehensive Analysis Chart
View Comprehensive Chart